Date,TemperatureHighF,TemperatureAvgF,TemperatureLowF,DewpointHighF,DewpointAvgF,DewpointLowF,HumidityHigh,HumidityAvg,HumidityLow,PressureMaxIn,PressureMinIn,WindSpeedMaxMPH,WindSpeedAvgMPH,GustSpeedMaxMPH,PrecipitationSumIn
2013-1-1,20.8,13.2,5.9,8.3,3.0,-2.7,67,64,54,30.02,29.91,0,0,0,0.00
2013-1-2,20.5,8.8,1.0,8.1,-1.3,-7.3,67,63,55,30.05,29.99,0,0,0,0.00
2013-1-3,22.5,9.1,0.3,5.9,-3.1,-10.6,59,57,46,30.05,30.02,0,0,0,0.00
2013-1-4,25.2,12.6,6.3,5.3,-0.8,-5.7,58,54,42,30.02,29.96,0,0,0,0.00
2013-1-5,28.6,16.7,8.1,12.3,3.2,-5.3,65,55,44,30.08,29.96,0,0,0,0.00
2013-1-6,38.5,24.8,15.4,17.8,10.1,4.5,65,54,37,29.96,29.79,0,0,0,0.00
2013-1-7,33.1,22.2,12.6,20.8,6.7,-0.5,75,51,37,29.91,29.82,0,0,0,0.00
2013-1-8,36.0,31.8,27.7,26.8,22.6,19.2,76,69,57,30.08,29.88,0,0,0,0.00
2013-1-9,38.1,28.2,18.5,21.2,17.1,11.4,75,64,42,30.08,29.67,0,0,0,0.00
2013-1-10,44.4,32.0,18.0,23.7,17.4,9.5,76,56,37,29.67,29.37,0,0,0,0.00
2013-1-11,19.2,15.4,12.4,9.8,5.2,1.7,72,64,53,29.64,29.37,0,0,0,0.00
2013-1-12,14.2,9.7,2.1,3.2,-2.3,-10.9,62,57,54,29.73,29.64,0,0,0,0.00
2013-1-13,11.7,2.8,-5.4,-1.9,-10.1,-18.0,54,54,54,29.82,29.73,0,0,0,0.00
2013-1-14,8.6,0.3,-8.3,-4.6,-12.4,-20.5,54,54,54,29.96,29.79,0,0,0,0.00
2013-1-15,17.8,10.9,4.8,6.5,-1.8,-8.2,66,56,54,30.17,29.93,0,0,0,0.00
2013-1-16,24.8,15.9,10.8,12.4,5.7,1.0,71,64,54,30.23,30.17,0,0,0,0.00
2013-1-17,29.5,16.4,7.7,19.0,6.9,-2.3,73,65,54,30.23,30.11,0,0,0,0.00
2013-1-18,31.1,19.8,11.8,16.4,9.3,4.9,73,64,44,30.14,30.05,0,0,0,0.00
2013-1-19,33.4,22.1,13.8,16.1,9.1,3.9,70,57,42,30.17,30.08,0,0,0,0.00
2013-1-20,33.8,21.2,12.7,12.0,6.5,2.9,64,53,37,30.11,30.05,0,0,0,0.00
2013-1-21,36.7,23.1,14.2,13.9,7.5,1.5,60,51,36,30.14,30.05,0,0,0,0.00
2013-1-22,38.3,24.1,15.8,15.9,8.3,3.1,59,51,38,30.08,30.02,0,0,0,0.00
2013-1-23,46.6,31.7,22.8,21.5,14.3,7.5,56,49,29,30.05,29.96,0,0,0,0.00
2013-1-24,40.1,36.5,30.4,33.5,28.4,16.6,86,73,54,30.05,29.96,0,0,0,0.00
2013-1-25,42.1,37.0,32.5,34.3,31.1,26.6,88,79,62,30.05,29.91,0,0,0,0.00
2013-1-26,44.2,35.8,28.6,33.8,28.0,24.6,86,74,53,29.91,29.67,0,0,0,0.00
2013-1-27,38.1,32.0,22.6,32.2,26.4,16.7,87,80,56,29.67,29.49,0,0,0,0.00
2013-1-28,26.8,21.6,15.4,17.5,10.6,4.2,78,62,48,29.70,29.61,0,0,0,0.00
2013-1-29,27.9,20.9,16.2,15.1,10.1,6.1,71,63,56,29.88,29.61,0,0,0,0.00
2013-1-30,32.5,29.9,20.7,27.3,24.0,13.1,83,78,72,29.96,29.88,0,0,0,0.00
2013-1-31,36.1,32.9,30.4,25.6,22.1,19.0,76,64,52,30.05,29.93,0,0,0,0.00
2013-2-1,37.8,30.9,21.9,24.2,20.0,12.4,76,64,51,30.14,29.99,0,0,0,0.00
2013-2-2,36.9,24.9,15.8,17.8,13.1,7.5,75,61,40,30.17,30.08,0,0,0,0.00
2013-2-3,37.8,27.8,21.0,16.0,12.2,9.1,65,52,35,30.08,29.91,0,0,0,0.00
2013-2-4,37.9,26.5,17.6,16.7,12.0,7.3,71,55,40,29.96,29.91,0,0,0,0.00
2013-2-5,46.6,32.1,21.6,22.0,15.4,10.2,63,51,35,29.93,29.73,0,0,0,0.00
2013-2-6,37.9,31.0,18.1,19.9,14.6,7.7,65,51,41,29.91,29.70,0,0,0,0.00
2013-2-7,36.0,23.2,11.8,13.8,8.7,3.3,68,55,34,29.93,29.70,0,0,0,0.00
2013-2-8,38.1,29.3,23.4,24.6,17.4,10.4,76,61,43,29.70,29.49,0,0,0,0.00
2013-2-9,29.8,25.0,21.4,19.9,16.8,13.2,77,71,59,29.61,29.46,0,0,0,0.00
2013-2-10,28.8,21.7,15.3,14.8,12.4,4.9,76,67,52,29.73,29.61,0,0,0,0.00
2013-2-11,25.7,15.6,9.7,9.4,5.1,1.0,72,63,48,29.91,29.73,0,0,0,0.00
2013-2-12,28.0,19.5,7.9,14.5,8.3,-0.2,70,62,46,30.02,29.91,0,0,0,0.00
2013-2-13,34.7,28.1,21.2,20.5,17.1,13.4,75,64,51,30.02,29.93,0,0,0,0.00
2013-2-14,35.2,28.3,19.8,22.1,17.6,10.8,77,64,48,30.11,29.93,0,0,0,0.00
2013-2-15,36.3,28.0,20.8,18.1,15.8,11.3,75,60,44,30.17,30.11,0,0,0,0.00
2013-2-16,41.7,26.6,16.2,18.0,13.1,8.8,75,58,35,30.17,29.82,0,0,0,0.00
2013-2-17,35.8,27.6,16.2,19.7,12.1,4.7,62,52,42,29.82,29.67,0,0,0,0.00
2013-2-18,33.6,21.1,10.2,12.4,6.2,-0.2,65,53,40,29.85,29.73,0,0,0,0.00
2013-2-19,42.4,29.0,17.8,15.6,8.8,2.0,53,43,30,29.73,29.46,0,0,0,0.00
2013-2-20,40.5,30.3,25.9,23.5,16.1,8.3,83,57,40,29.55,29.43,0,0,0,0.00
2013-2-21,30.4,23.3,13.8,20.9,13.3,5.2,80,66,51,29.76,29.55,0,0,0,0.00
2013-2-22,30.9,21.5,13.8,15.8,10.4,5.6,73,62,48,29.82,29.73,0,0,0,0.00
2013-2-23,27.3,21.2,16.0,21.5,14.3,6.1,88,75,59,29.79,29.52,0,0,0,0.00
2013-2-24,28.9,20.1,10.6,13.5,9.1,0.8,76,62,46,29.93,29.70,0,0,0,0.00
2013-2-25,32.0,18.3,6.6,14.0,5.3,-3.0,68,57,41,29.93,29.73,0,0,0,0.00
2013-2-26,30.4,21.5,9.3,15.7,10.9,-1.9,74,63,48,29.99,29.76,0,0,0,0.00
2013-2-27,30.4,15.5,5.0,9.9,1.8,-5.8,62,55,42,30.08,29.99,0,0,0,0.00
2013-2-28,37.9,24.8,10.0,17.0,9.1,-0.4,64,52,37,30.17,30.08,0,0,0,0.00
2013-3-1,46.6,34.7,26.6,25.8,22.2,13.6,76,61,42,30.23,30.17,0,0,0,0.00
2013-3-2,48.7,33.3,22.6,27.2,21.1,16.8,81,62,37,30.23,29.91,0,0,0,0.00
2013-3-3,38.8,35.9,32.2,33.5,29.2,20.3,88,77,60,29.91,29.70,0,0,0,0.00
2013-3-4,35.1,26.8,14.4,31.9,12.6,4.8,88,56,36,29.96,29.70,0,0,0,0.00
2013-3-5,44.8,25.6,10.6,21.8,10.5,1.5,66,54,30,29.99,29.79,0,0,0,0.00
2013-3-6,50.4,37.0,25.2,30.0,19.6,13.4,84,51,32,29.79,29.64,0,0,0,0.00
2013-3-7,47.1,36.9,30.7,30.3,26.1,23.4,85,66,40,29.79,29.70,0,0,0,0.00
2013-3-8,43.3,36.9,33.3,31.3,28.5,25.0,86,72,49,29.73,29.55,0,0,0,0.00
2013-3-9,39.7,33.3,23.9,30.2,23.3,10.9,87,68,42,29.96,29.55,0,0,0,0.00
2013-3-10,43.0,29.7,19.2,20.1,15.2,10.6,73,56,38,30.05,29.96,0,0,0,0.00
2013-3-11,43.9,36.3,27.1,24.8,18.7,14.1,61,49,38,30.05,29.93,0,0,0,0.00
2013-3-12,50.2,39.7,33.6,30.0,26.6,22.9,76,60,38,30.08,29.96,0,0,0,0.00
2013-3-13,54.9,39.7,30.0,28.5,25.1,23.0,79,58,33,30.14,30.05,0,0,0,0.00
2013-3-14,62.4,42.9,32.2,26.2,23.6,21.0,65,49,24,30.11,29.99,0,0,0,0.00
2013-3-15,56.5,43.9,36.5,27.1,23.7,19.8,66,47,26,29.99,29.85,0,0,0,0.00
2013-3-16,50.5,40.0,33.8,23.4,21.1,16.3,62,47,30,29.85,29.70,0,0,0,0.00
2013-3-17,38.1,34.2,27.5,29.8,19.0,8.3,78,54,42,29.79,29.64,0,0,0,0.00
2013-3-18,43.9,32.9,25.0,17.9,13.7,8.6,62,45,32,29.88,29.79,0,0,0,0.00
2013-3-19,49.8,33.6,23.5,16.9,10.6,5.8,53,39,22,29.99,29.88,0,0,0,0.00
2013-3-20,42.3,36.1,28.2,35.0,25.2,9.1,84,66,42,29.93,29.64,0,0,0,0.00
2013-3-21,39.7,30.0,21.0,33.4,20.5,9.7,88,68,48,29.76,29.58,0,0,0,0.00
2013-3-22,27.0,24.0,19.8,16.9,11.3,5.5,70,58,44,29.76,29.64,0,0,0,0.00
2013-3-23,32.4,21.2,13.3,12.4,8.5,0.5,70,58,43,29.91,29.73,0,0,0,0.00
2013-3-24,37.0,20.0,8.4,14.4,4.6,-3.7,60,52,37,29.91,29.88,0,0,0,0.00
2013-3-25,43.2,26.3,9.0,22.0,10.4,-1.7,65,52,36,29.93,29.85,0,0,0,0.00
2013-3-26,52.2,38.6,27.1,26.9,21.3,18.3,74,52,29,29.85,29.73,0,0,0,0.00
2013-3-27,56.8,39.9,27.0,25.8,22.6,19.8,78,53,29,29.85,29.79,0,0,0,0.00
2013-3-28,35.6,35.3,35.1,22.9,22.4,21.8,60,59,58,29.85,29.85,0,0,0,0.00
2013-3-30,51.8,43.2,36.7,25.8,24.1,20.4,61,48,31,29.99,29.96,0,0,0,0.00
2013-3-31,61.0,42.4,29.3,26.1,22.6,18.0,74,49,24,29.99,29.82,0,0,0,0.00
2013-4-1,46.8,40.6,35.4,35.1,32.0,26.1,85,72,50,29.85,29.79,0,0,0,0.00
2013-4-2,39.6,36.7,34.9,34.5,32.3,31.0,88,84,78,29.91,29.79,0,0,0,0.00
2013-4-3,60.4,43.1,32.5,35.8,28.7,22.8,90,61,30,29.99,29.91,0,0,0,0.00
2013-4-4,62.8,45.3,32.7,30.2,25.8,23.6,73,49,26,29.99,29.82,0,0,0,0.00
2013-4-5,48.7,42.4,33.8,37.7,29.1,22.1,86,61,40,29.88,29.76,0,0,0,0.00
2013-4-6,50.2,40.2,32.2,35.1,26.7,22.5,76,60,35,29.85,29.82,0,0,0,0.00
2013-4-7,53.1,41.9,32.5,29.4,26.3,22.5,82,56,36,29.82,29.52,0,0,0,0.00
2013-4-8,42.3,36.5,23.2,32.8,27.5,16.6,84,71,42,29.52,29.34,0,0,0,0.00
2013-4-9,31.5,22.4,16.2,17.0,8.8,4.7,77,57,40,29.88,29.46,0,0,0,0.00
2013-4-10,46.8,31.0,14.4,26.8,15.8,4.8,67,54,37,29.91,29.79,0,0,0,0.00
2013-4-11,48.6,38.3,33.4,34.2,30.0,25.4,93,73,43,29.82,29.76,0,0,0,0.00
2013-4-12,55.4,40.0,29.3,28.4,22.9,16.8,77,53,28,29.85,29.73,0,0,0,0.00
2013-4-13,46.8,38.6,30.2,33.2,25.1,16.1,82,60,38,29.73,29.46,0,0,0,0.00
2013-4-14,44.1,32.0,21.2,21.1,11.9,6.6,70,45,29,29.67,29.52,0,0,0,0.00
2013-4-15,39.6,33.5,28.6,27.0,22.8,18.2,77,65,47,29.55,29.46,0,0,0,0.00
2013-4-16,34.9,30.8,25.0,23.3,16.4,8.8,75,56,42,29.73,29.49,0,0,0,0.00
2013-4-17,37.6,27.8,20.7,19.9,9.6,4.5,56,46,35,29.91,29.73,0,0,0,0.00
2013-4-18,46.9,31.1,19.8,15.6,7.8,0.4,55,38,28,30.02,29.91,0,0,0,0.00
2013-4-19,49.5,35.9,24.4,31.3,18.6,8.8,81,50,37,30.02,29.82,0,0,0,0.00
2013-4-20,44.1,37.6,34.0,35.4,31.5,27.2,91,79,58,29.93,29.79,0,0,0,0.00
2013-4-21,54.5,41.7,29.3,28.9,25.0,20.6,84,55,31,29.96,29.82,0,0,0,0.00
2013-4-22,44.1,39.0,33.3,28.2,21.2,12.5,71,50,32,29.91,29.82,0,0,0,0.00
2013-4-27,66.6,55.2,41.5,28.1,24.0,21.1,48,31,23,30.08,29.99,0,0,0,0.00
2013-4-28,68.2,51.5,36.9,29.7,25.3,22.6,58,38,23,29.99,29.85,0,0,0,0.00
2013-4-29,65.1,52.0,38.5,28.5,25.2,22.7,55,36,25,29.88,29.67,0,0,0,0.00
2013-4-30,54.5,44.7,35.1,28.1,18.6,4.8,57,36,24,29.88,29.67,0,0,0,0.00
2013-5-1,43.0,34.8,28.8,26.2,12.4,2.0,65,40,30,30.26,29.88,0,0,0,0.00
2013-5-2,59.0,40.4,24.3,22.1,16.5,10.4,64,40,22,30.32,30.14,0,0,0,0.00
2013-5-3,66.0,47.2,30.4,26.9,19.1,15.1,54,35,18,30.17,29.85,0,0,0,0.00
2013-5-4,63.7,48.1,32.7,28.9,21.0,13.1,54,35,24,29.85,29.76,0,0,0,0.00
2013-5-5,66.0,50.5,37.6,32.0,27.0,23.7,59,42,25,29.82,29.76,0,0,0,0.00
2013-5-6,62.1,49.9,42.1,37.9,30.7,24.8,75,49,27,29.82,29.76,0,0,0,0.00
2013-5-7,58.1,48.0,37.9,39.0,33.0,26.9,86,59,31,29.85,29.76,0,0,0,0.00
2013-5-8,57.4,45.0,35.2,43.2,35.5,29.1,85,71,39,29.93,29.85,0,0,0,0.00
2013-5-9,65.8,50.7,36.0,37.9,31.7,25.2,89,54,24,29.99,29.91,0,0,0,0.00
2013-5-10,72.0,53.2,38.3,43.4,33.1,28.3,84,51,23,30.11,29.99,0,0,0,0.00
2013-5-11,73.0,55.6,38.8,37.7,30.8,24.0,77,44,22,30.14,30.08,0,0,0,0.00
2013-5-12,77.0,59.0,41.2,34.0,29.9,23.3,59,35,21,30.14,30.05,0,0,0,0.00
2013-5-13,80.6,60.6,45.1,35.8,32.7,30.6,58,38,20,30.08,29.96,0,0,0,0.00
2013-5-24,69.3,55.6,33.6,31.0,25.9,19.7,59,34,20,29.91,29.82,0,0,0,0.00
2013-5-25,76.3,58.4,41.2,33.1,27.9,22.5,54,33,18,29.85,29.79,0,0,0,0.00
2013-5-26,75.9,59.5,45.1,34.4,27.5,20.7,47,31,18,29.82,29.76,0,0,0,0.00
2013-5-27,67.5,56.5,45.3,34.9,30.8,26.2,51,38,26,29.88,29.73,0,0,0,0.00
2013-5-28,58.8,47.5,40.3,42.6,36.0,26.2,88,66,39,29.76,29.64,0,0,0,0.00
2013-5-29,60.4,47.1,39.2,41.2,34.9,27.9,91,66,34,29.76,29.70,0,0,0,0.00
2013-5-30,59.2,47.2,36.7,42.1,32.3,26.4,89,60,33,29.88,29.76,0,0,0,0.00
2013-5-31,63.7,49.1,36.9,29.9,25.8,19.5,71,43,25,30.05,29.85,0,0,0,0.00
2013-6-1,72.1,53.4,33.8,36.3,28.4,22.7,66,41,22,30.08,29.93,0,0,0,0.00
2013-6-2,82.8,62.5,40.3,37.5,32.2,26.8,67,37,17,29.93,29.67,0,0,0,0.00
2013-6-3,69.6,58.3,44.2,36.4,28.7,22.2,56,34,22,29.91,29.73,0,0,0,0.00
2013-6-4,72.9,56.0,38.3,34.5,28.9,22.9,59,38,22,29.96,29.88,0,0,0,0.00
2013-6-5,75.6,57.6,40.3,37.6,32.5,28.7,72,43,21,29.99,29.93,0,0,0,0.00
2013-6-6,79.3,61.0,42.8,40.7,34.5,30.1,70,41,21,29.99,29.93,0,0,0,0.00
2013-6-7,82.4,63.7,45.9,42.7,36.4,32.6,67,40,21,29.96,29.85,0,0,0,0.00
2013-6-8,78.1,65.0,52.7,39.1,35.2,30.2,57,35,21,29.96,29.85,0,0,0,0.00
2013-6-9,84.2,65.8,46.6,43.9,36.7,30.6,62,37,19,29.96,29.88,0,0,0,0.00
2013-6-10,88.0,70.0,54.1,46.2,36.3,25.8,59,32,16,29.91,29.79,0,0,0,0.00
2013-6-11,79.9,68.1,54.5,36.2,30.2,24.6,40,25,17,29.96,29.79,0,0,0,0.00
2013-6-12,78.4,63.9,47.3,42.2,35.2,28.4,60,37,21,29.96,29.85,0,0,0,0.00
2013-6-13,83.7,69.5,50.2,42.5,34.0,28.5,55,28,19,29.93,29.76,0,0,0,0.00
2013-6-14,70.3,56.0,41.9,36.4,31.2,25.7,57,40,26,29.99,29.93,0,0,0,0.00
2013-6-15,78.3,57.7,37.6,39.3,31.2,21.8,61,39,21,29.96,29.91,0,0,0,0.00
2013-6-16,84.2,62.5,42.1,39.7,30.3,22.0,55,33,16,29.96,29.91,0,0,0,0.00
2013-6-17,83.7,62.6,42.6,38.2,30.0,21.0,53,31,17,29.99,29.88,0,0,0,0.00
2013-6-18,84.2,64.0,44.1,40.3,30.3,22.6,51,30,16,29.91,29.70,0,0,0,0.00
2013-6-19,74.5,61.7,45.9,36.3,27.0,19.5,38,27,22,29.88,29.67,0,0,0,0.00
2013-6-20,69.3,53.5,36.1,33.3,27.8,20.6,60,39,24,29.91,29.82,0,0,0,0.00
2013-6-21,73.0,57.2,38.8,36.3,31.4,26.9,66,40,24,29.88,29.82,0,0,0,0.00
2013-6-22,70.5,56.0,41.7,35.9,31.1,26.9,66,41,25,29.93,29.88,0,0,0,0.00
2013-6-23,79.7,58.9,38.1,40.2,32.2,26.1,66,39,21,29.91,29.73,0,0,0,0.00
2013-6-24,79.5,62.9,51.8,45.5,35.0,27.0,69,38,20,29.85,29.70,0,0,0,0.00
2013-6-25,76.8,61.4,47.5,47.7,41.1,35.9,79,52,25,29.93,29.85,0,0,0,0.00
2013-6-26,85.1,67.9,51.8,46.7,41.8,37.2,68,42,22,30.05,29.91,0,0,0,0.00
2013-6-27,90.5,70.7,52.3,49.8,43.4,38.8,71,42,19,30.14,30.05,0,0,0,0.00
2013-6-28,93.0,69.2,55.0,51.2,43.2,37.5,64,42,17,30.17,30.05,0,0,0,0.00
2013-6-29,91.4,72.3,54.9,49.8,41.6,36.2,60,36,18,30.08,29.96,0,0,0,0.00
2013-6-30,91.4,73.9,59.2,50.2,40.9,33.0,52,33,18,30.08,29.99,0,0,0,0.00
2013-7-1,91.8,72.1,53.6,48.9,40.1,33.3,57,34,17,30.11,29.99,0,0,0,0.00
2013-7-2,90.9,72.2,55.6,49.8,41.6,35.6,55,35,18,30.08,29.96,0,0,0,0.00
2013-7-3,85.1,70.9,56.8,52.4,45.3,40.0,60,41,26,30.02,29.91,0,0,0,0.00
2013-7-4,82.2,68.6,57.9,60.1,52.2,45.1,94,60,30,30.02,29.85,0,0,0,0.00
2013-7-5,82.8,68.0,56.3,59.1,51.4,44.0,92,60,28,29.96,29.82,0,0,0,0.00
2013-7-6,81.0,62.5,54.3,55.4,50.9,37.1,90,70,24,29.96,29.85,0,0,0,0.00
2013-7-7,81.3,63.5,52.7,58.0,50.9,44.4,92,67,29,29.99,29.91,0,0,0,0.00
2013-7-8,84.9,66.5,54.3,55.5,47.8,39.5,85,56,21,30.05,29.96,0,0,0,0.00
2013-7-9,87.3,69.4,54.9,53.9,43.8,36.0,70,44,19,30.08,30.02,0,0,0,0.00
2013-7-10,90.0,68.5,50.0,48.6,39.4,34.1,65,38,18,30.08,29.93,0,0,0,0.00
2013-7-11,78.1,64.7,55.2,52.6,42.2,31.7,71,45,27,29.96,29.91,0,0,0,0.00
2013-7-12,74.1,62.9,56.3,58.7,52.4,43.5,92,71,36,30.02,29.93,0,0,0,0.00
2013-7-13,79.9,65.8,57.6,57.2,51.1,43.0,82,63,30,30.05,29.96,0,0,0,0.00
2013-7-14,85.6,67.5,50.9,56.0,46.9,36.5,90,55,21,30.08,29.99,0,0,0,0.00
2013-7-15,86.5,70.5,54.9,53.0,46.7,42.1,69,46,23,30.02,29.88,0,0,0,0.00
2013-7-16,83.5,66.7,59.4,63.9,52.9,46.7,94,65,29,30.08,29.93,0,0,0,0.00
2013-7-17,81.9,67.6,56.8,62.7,54.6,43.6,94,67,31,30.11,30.02,0,0,0,0.00
2013-7-18,87.6,69.3,54.7,57.8,50.0,38.5,92,56,19,30.11,30.02,0,0,0,0.00
2013-7-19,89.4,69.8,53.2,51.9,42.7,36.2,71,42,18,30.08,29.96,0,0,0,0.00
2013-7-20,90.1,68.5,51.6,49.5,38.2,32.7,63,36,18,29.99,29.91,0,0,0,0.00
2013-7-21,90.1,68.7,51.8,48.6,37.4,31.8,58,34,18,29.93,29.91,0,0,0,0.00
2013-7-22,90.1,69.5,52.0,46.4,36.8,30.0,56,32,18,29.99,29.93,0,0,0,0.00
2013-7-23,90.7,69.9,52.9,48.2,37.0,30.7,57,32,18,30.05,29.96,0,0,0,0.00
2013-7-24,82.9,65.3,52.5,47.6,39.4,27.6,62,40,25,30.02,29.96,0,0,0,0.00
2013-7-25,86.7,68.8,55.9,53.1,42.8,35.0,70,44,19,30.08,29.99,0,0,0,0.00
2013-7-26,89.4,69.6,53.1,48.6,38.8,33.1,62,36,18,30.14,30.02,0,0,0,0.00
2013-7-27,69.8,63.1,56.8,53.8,45.2,32.3,78,53,35,30.05,29.93,0,0,0,0.00
2013-7-28,80.4,63.7,53.6,54.3,48.0,39.1,85,61,30,29.96,29.88,0,0,0,0.00
2013-7-29,73.6,62.2,52.9,53.4,46.7,40.2,84,61,33,30.05,29.91,0,0,0,0.00
2013-7-30,83.5,66.3,51.6,49.7,41.6,33.8,75,45,21,30.11,30.05,0,0,0,0.00
2013-7-31,88.7,68.8,54.1,47.5,37.7,32.9,65,35,18,30.14,29.99,0,0,0,0.00
2013-8-1,86.7,69.6,55.6,51.5,41.3,33.1,51,37,22,29.99,29.85,0,0,0,0.00
2013-8-2,85.6,67.5,50.9,48.1,36.7,30.8,56,34,17,29.96,29.88,0,0,0,0.00
2013-8-3,86.5,66.9,53.6,40.9,33.0,28.0,49,30,16,30.02,29.93,0,0,0,0.00
2013-8-4,88.0,68.9,54.5,42.3,35.1,29.4,50,30,19,30.05,29.96,0,0,0,0.00
2013-8-5,82.4,67.3,53.4,45.2,36.6,32.9,55,34,20,30.02,29.93,0,0,0,0.00
2013-8-6,87.8,67.8,52.9,46.2,36.7,32.1,57,34,18,29.99,29.93,0,0,0,0.00
2013-8-7,86.4,66.4,51.3,42.4,36.1,32.2,54,34,19,29.99,29.93,0,0,0,0.00
2013-8-8,77.2,59.7,50.4,54.4,43.1,34.3,84,57,24,30.02,29.93,0,0,0,0.00
2013-8-9,78.4,60.2,46.0,47.3,40.6,33.1,84,53,22,30.02,29.96,0,0,0,0.00
2013-8-10,82.9,63.4,47.8,47.3,38.4,33.2,71,44,19,30.05,29.99,0,0,0,0.00
2013-8-11,79.5,64.9,50.9,44.1,37.9,34.1,63,39,21,30.08,29.96,0,0,0,0.00
2013-8-12,77.9,62.9,50.2,45.0,38.2,34.1,62,42,26,30.05,29.99,0,0,0,0.00
2013-8-13,83.3,63.2,47.7,44.8,36.2,29.2,69,40,20,30.08,30.02,0,0,0,0.00
2013-8-14,86.5,65.0,48.9,42.1,33.9,26.7,59,34,16,30.05,29.99,0,0,0,0.00
2013-8-15,88.3,66.2,48.7,40.5,31.6,23.1,50,30,15,30.05,29.99,0,0,0,0.00
2013-8-16,86.7,66.3,49.8,39.6,31.7,22.9,47,29,18,30.08,30.02,0,0,0,0.00
2013-8-17,81.7,65.8,55.9,46.2,38.6,32.0,68,38,22,30.05,30.02,0,0,0,0.00
2013-8-18,87.3,66.7,51.3,48.3,42.1,36.5,74,46,20,30.08,29.99,0,0,0,0.00
2013-8-19,86.2,67.6,54.3,47.8,42.4,38.7,61,42,23,30.08,29.99,0,0,0,0.00
2013-8-20,83.5,68.2,57.2,49.2,44.7,41.2,66,45,24,30.02,29.99,0,0,0,0.00
2013-8-21,82.4,66.2,52.7,51.0,44.2,38.6,78,49,24,30.05,29.99,0,0,0,0.00
2013-8-22,74.8,63.0,56.3,62.0,49.0,37.1,91,62,32,30.08,29.96,0,0,0,0.00
2013-8-23,66.0,59.6,53.6,58.8,53.3,48.9,93,81,56,30.05,29.91,0,0,0,0.00
2013-8-24,73.0,58.9,48.9,56.9,49.9,39.7,93,75,32,29.99,29.93,0,0,0,0.00
2013-8-25,73.2,61.3,48.0,54.4,47.0,40.4,92,64,32,30.05,29.99,0,0,0,0.00
2013-8-26,70.3,62.3,55.9,51.4,48.9,41.8,76,62,39,30.08,30.02,0,0,0,0.00
2013-8-27,68.7,61.7,54.9,56.5,52.1,47.4,89,72,47,30.05,29.96,0,0,0,0.00
2013-8-28,78.6,63.5,51.8,59.2,49.4,42.2,93,65,28,30.08,29.99,0,0,0,0.00
2013-8-29,82.8,65.7,53.8,52.8,46.7,41.9,79,54,27,30.11,30.05,0,0,0,0.00
2013-8-30,86.4,67.3,53.8,52.8,45.8,40.5,76,50,22,30.11,30.02,0,0,0,0.00
2013-8-31,79.3,66.4,55.0,51.7,46.5,43.0,72,50,30,30.05,29.99,0,0,0,0.00
2013-9-1,75.2,63.9,57.0,57.1,49.2,43.8,86,61,33,30.02,29.93,0,0,0,0.00
2013-9-2,78.3,65.4,59.2,60.3,53.9,45.6,91,69,33,30.02,29.96,0,0,0,0.00
2013-9-3,77.0,64.6,54.3,56.9,51.5,44.6,85,65,33,30.08,30.02,0,0,0,0.00
2013-9-4,82.9,65.3,52.9,57.2,49.7,44.0,92,62,27,30.14,30.05,0,0,0,0.00
2013-9-5,81.3,67.1,55.8,53.2,45.9,37.9,78,50,24,30.11,29.99,0,0,0,0.00
2013-9-6,83.3,67.1,57.0,48.4,43.6,35.3,65,45,21,30.08,29.96,0,0,0,0.00
2013-9-7,80.4,62.7,54.9,54.4,48.4,41.9,92,63,31,30.08,29.99,0,0,0,0.00
2013-9-8,64.0,56.4,52.3,55.3,51.9,47.8,94,86,63,30.02,29.93,0,0,0,0.00
2013-9-9,74.5,58.5,48.6,55.7,46.7,39.3,93,69,33,29.93,29.88,0,0,0,0.00
2013-9-10,71.1,58.8,52.2,53.5,47.0,41.1,80,66,36,29.96,29.91,0,0,0,0.00
2013-9-11,69.3,59.6,53.6,58.3,51.9,46.7,98,77,47,30.02,29.96,0,0,0,0.00
2013-9-12,67.8,57.0,51.1,54.5,49.5,43.2,95,78,43,30.05,29.96,0,0,0,0.00
2013-9-13,62.2,55.7,50.9,54.6,50.7,46.3,96,84,70,29.99,29.85,0,0,0,0.00
2013-9-14,60.4,54.9,50.4,54.3,50.8,47.5,93,86,71,29.93,29.85,0,0,0,0.00
2013-9-15,63.3,54.4,47.8,57.8,50.6,45.8,95,87,67,29.99,29.91,0,0,0,0.00
2013-9-16,71.1,56.4,46.8,56.8,47.2,37.5,95,74,33,30.02,29.91,0,0,0,0.00
2013-9-17,67.5,59.9,50.9,57.1,45.2,33.9,87,62,33,29.93,29.70,0,0,0,0.00
2013-9-18,63.7,53.7,39.9,38.9,32.5,24.1,59,45,34,29.96,29.70,0,0,0,0.00
2013-9-19,62.2,45.7,34.3,31.6,27.8,24.0,76,52,28,30.02,29.96,0,0,0,0.00
2013-9-20,72.7,50.1,33.8,34.7,30.4,26.7,76,50,23,29.99,29.85,0,0,0,0.00
2013-9-21,73.0,57.3,43.5,34.2,31.7,28.2,60,40,22,29.88,29.67,0,0,0,0.00
2013-9-22,61.3,54.4,46.0,40.9,33.8,28.8,80,47,32,29.79,29.61,0,0,0,0.00
2013-9-23,60.4,49.2,41.5,35.1,31.6,27.6,68,51,34,29.99,29.79,0,0,0,0.00
2013-9-24,68.2,52.7,36.9,34.3,28.7,23.2,76,45,22,29.99,29.67,0,0,0,0.00
2013-9-25,59.9,47.6,37.6,40.6,30.6,23.9,85,57,26,29.70,29.55,0,0,0,0.00
2013-9-26,48.2,39.3,36.0,37.4,33.4,28.5,89,80,54,29.73,29.61,0,0,0,0.00
2013-9-27,42.4,37.2,32.5,34.1,31.1,26.4,87,79,56,30.02,29.70,0,0,0,0.00
2013-9-28,53.4,38.5,28.9,32.8,26.4,21.7,80,64,34,30.05,29.99,0,0,0,0.00
2013-9-29,63.7,49.0,34.5,30.5,26.9,24.3,74,46,24,29.99,29.88,0,0,0,0.00
2013-9-30,68.0,58.1,46.8,31.9,27.7,23.1,51,32,24,29.91,29.82,0,0,0,0.00
2013-10-1,67.1,50.4,38.5,34.4,30.7,27.3,72,49,24,29.91,29.85,0,0,0,0.00
2013-10-2,64.2,49.4,41.2,40.3,33.7,29.5,78,57,29,29.91,29.76,0,0,0,0.00
2013-10-3,45.3,38.9,34.5,40.3,28.5,17.5,87,67,42,29.85,29.70,0,0,0,0.00
2013-10-4,40.1,34.3,30.9,28.3,26.0,23.5,81,72,53,30.17,29.85,0,0,0,0.00
2013-10-5,45.5,35.0,27.9,28.9,24.7,21.6,78,67,48,30.23,30.14,0,0,0,0.00
2013-10-6,55.9,40.2,29.3,31.5,25.7,22.1,75,58,35,30.23,30.08,0,0,0,0.00
2013-10-7,66.9,47.8,34.5,31.4,27.1,22.5,73,48,23,30.08,29.82,0,0,0,0.00
2013-10-8,59.5,48.5,38.1,28.1,23.6,19.0,54,38,27,29.82,29.70,0,0,0,0.00
2013-10-9,61.2,44.1,32.9,36.5,27.4,21.9,75,54,27,29.73,29.64,0,0,0,0.00
2013-10-10,45.0,41.0,38.3,39.2,35.6,33.2,86,81,73,29.76,29.61,0,0,0,0.00
2013-10-11,48.7,39.0,32.4,35.0,28.4,21.2,86,68,38,29.93,29.76,0,0,0,0.00
2013-10-12,52.2,40.6,30.4,33.2,26.0,22.0,76,58,35,29.93,29.82,0,0,0,0.00
2013-10-13,48.7,42.8,38.8,39.3,35.2,32.3,85,75,56,29.88,29.79,0,0,0,0.00
2013-10-14,45.3,38.4,34.9,35.8,32.5,28.3,89,79,55,30.02,29.88,0,0,0,0.00
2013-10-15,42.8,35.3,30.2,29.0,23.9,16.6,83,65,40,30.05,29.99,0,0,0,0.00
2013-10-16,46.2,34.0,24.8,23.5,20.0,17.2,74,58,37,30.02,29.96,0,0,0,0.00
2013-10-17,48.9,36.6,28.2,22.5,20.0,17.2,68,52,33,29.99,29.91,0,0,0,0.00
2013-10-18,47.3,37.8,32.2,25.2,21.6,19.2,66,53,37,30.05,29.96,0,0,0,0.00
2013-10-19,51.4,38.1,27.9,23.3,18.8,14.7,70,48,29,30.05,29.96,0,0,0,0.00
2013-10-20,52.7,41.1,32.7,23.7,20.0,16.0,55,43,30,29.96,29.91,0,0,0,0.00
2013-10-21,52.9,39.3,30.2,26.0,23.2,20.6,73,54,33,30.08,29.96,0,0,0,0.00
2013-10-22,55.9,41.0,31.1,26.6,23.6,20.3,69,52,31,30.11,30.02,0,0,0,0.00
2013-10-23,57.9,42.3,32.0,28.2,23.7,18.0,72,50,29,30.05,29.99,0,0,0,0.00
2013-10-24,58.1,43.2,33.1,27.2,22.6,16.9,66,46,27,30.05,29.99,0,0,0,0.00
2013-10-25,58.1,44.4,36.7,26.6,22.1,17.0,53,42,27,30.11,30.05,0,0,0,0.00
2013-10-26,56.5,42.0,32.5,26.4,21.1,15.8,66,45,26,30.17,30.05,0,0,0,0.00
2013-10-27,58.5,44.0,32.7,31.7,20.4,16.1,57,40,25,30.05,29.64,0,0,0,0.00
2013-10-28,54.1,43.3,35.6,32.4,28.8,21.8,80,58,30,29.67,29.46,0,0,0,0.00
2013-10-29,40.1,35.8,31.1,32.8,29.7,25.0,85,78,68,29.79,29.64,0,0,0,0.00
2013-10-30,38.1,33.8,28.9,31.2,26.9,23.5,82,76,65,29.91,29.79,0,0,0,0.00
2013-10-31,39.7,36.2,33.4,30.2,25.9,21.7,77,67,49,29.99,29.91,0,0,0,0.00
2013-11-1,46.0,38.8,32.0,33.5,28.9,24.6,86,68,44,30.11,29.99,0,0,0,0.00
2013-11-2,52.7,37.1,26.8,25.8,21.5,16.4,79,56,28,30.08,29.70,0,0,0,0.00
2013-11-3,46.6,34.1,22.6,26.3,17.6,10.3,77,52,31,29.85,29.67,0,0,0,0.00
2013-11-4,33.3,26.9,22.3,18.1,12.9,8.5,68,55,45,29.91,29.79,0,0,0,0.00
2013-11-5,29.5,24.0,19.6,18.6,12.6,7.2,74,62,48,30.11,29.91,0,0,0,0.00
2013-11-6,40.5,32.0,21.9,25.6,18.4,11.3,72,57,42,30.20,30.08,0,0,0,0.00
2013-11-7,48.6,36.9,26.1,29.3,23.3,19.6,79,59,37,30.20,29.91,0,0,0,0.00
2013-11-8,48.7,42.3,33.1,25.0,21.2,17.8,62,44,33,29.96,29.88,0,0,0,0.00
2013-11-9,52.7,38.6,30.6,25.9,21.4,19.1,67,51,30,30.08,29.96,0,0,0,0.00
2013-11-10,52.5,38.3,30.4,23.5,20.4,18.1,63,49,30,30.14,30.08,0,0,0,0.00
2013-11-11,54.9,39.6,31.3,22.9,19.1,15.9,59,45,27,30.26,30.14,0,0,0,0.00
2013-11-12,55.2,40.1,30.6,24.5,19.2,16.1,56,44,28,30.32,30.20,0,0,0,0.00
2013-11-13,53.4,41.9,34.7,24.8,21.1,17.5,64,44,29,30.20,30.05,0,0,0,0.00
2013-11-14,45.0,35.7,26.8,24.4,18.5,12.6,70,50,35,30.08,29.67,0,0,0,0.00
2013-11-15,36.7,32.4,22.5,29.6,23.0,13.2,81,69,46,29.67,29.58,0,0,0,0.00
2013-11-16,34.0,30.2,21.6,27.5,23.4,13.3,87,76,67,29.67,29.46,0,0,0,0.00
2013-11-17,38.8,31.1,25.7,29.0,24.0,18.6,87,75,60,29.99,29.67,0,0,0,0.00
2013-11-18,41.4,31.0,24.6,32.3,24.7,18.8,84,77,59,30.05,29.88,0,0,0,0.00
2013-11-19,41.0,35.7,29.8,34.2,29.5,23.5,86,78,56,29.88,29.82,0,0,0,0.00
2013-11-20,42.8,37.7,33.8,34.9,32.3,28.9,88,81,69,29.82,29.76,0,0,0,0.00
2013-11-21,36.1,28.0,19.6,32.2,20.7,9.9,88,74,61,30.14,29.79,0,0,0,0.00
2013-11-22,26.8,18.5,12.7,11.2,5.3,-2.1,74,56,46,30.20,30.11,0,0,0,0.00
2013-11-23,15.4,15.1,14.9,3.2,2.7,2.4,58,57,57,30.17,30.17,0,0,0,0.00
2013-11-24,34.3,30.4,26.6,21.9,18.5,14.4,65,61,56,30.08,29.99,0,0,0,0.00
2013-11-25,39.7,28.4,20.8,20.7,15.4,10.8,69,58,41,30.23,30.05,0,0,0,0.00
2013-11-26,42.3,29.8,21.6,22.5,17.5,12.5,74,60,40,30.26,30.17,0,0,0,0.00
2013-11-27,45.3,33.0,25.9,22.0,17.7,13.9,65,54,37,30.17,29.99,0,0,0,0.00
2013-11-28,45.9,33.7,26.2,21.4,17.6,14.5,64,52,35,30.05,29.99,0,0,0,0.00
2013-11-29,43.0,33.3,27.0,22.0,19.5,15.9,69,57,42,30.14,30.05,0,0,0,0.00
2013-11-30,41.7,31.1,24.1,23.0,19.1,15.2,75,62,41,30.17,30.11,0,0,0,0.00
2013-12-1,43.5,37.6,30.0,25.3,22.9,19.7,70,56,42,30.17,30.02,0,0,0,0.00
2013-12-2,46.4,39.2,33.3,32.5,24.7,17.4,85,59,32,30.02,29.64,0,0,0,0.00
2013-12-3,35.6,24.7,16.7,31.9,15.4,4.9,87,68,57,29.64,29.58,0,0,0,0.00
2013-12-4,16.5,9.8,-1.5,4.7,-2.8,-14.1,59,56,54,29.88,29.58,0,0,0,0.00
2013-12-5,13.1,2.7,-4.0,-0.4,-10.1,-16.4,54,54,54,29.88,29.79,0,0,0,0.00
2013-12-6,16.0,6.0,-1.8,0.8,-7.3,-14.4,55,54,45,29.91,29.85,0,0,0,0.00
2013-12-7,21.7,14.9,4.5,11.6,3.7,-8.1,69,60,55,29.85,29.58,0,0,0,0.00
2013-12-8,15.3,10.6,6.4,4.6,0.5,-3.5,63,63,61,29.96,29.70,0,0,0,0.00
2013-12-9,12.6,6.8,1.4,2.4,-3.2,-8.4,63,63,63,30.26,29.96,0,0,0,0.00
2013-12-10,26.1,20.5,13.8,12.7,8.1,-8.4,66,58,48,30.26,30.11,0,0,0,0.00
2013-12-11,26.8,16.5,8.6,14.3,5.1,-2.8,67,60,52,30.32,30.20,0,0,0,0.00
2013-12-12,28.8,20.0,12.7,20.0,10.5,2.7,74,66,59,30.32,30.08,0,0,0,0.00
2013-12-13,21.7,21.0,19.8,12.6,11.7,10.6,69,67,63,30.29,30.26,0,0,0,0.00
2013-12-14,32.5,25.1,18.9,19.5,15.7,10.1,81,67,53,30.41,30.26,0,0,0,0.00
2013-12-15,36.5,24.2,14.7,21.2,13.1,4.9,72,63,42,30.41,30.35,0,0,0,0.00
2013-12-16,39.7,25.8,21.6,21.7,14.9,11.9,70,63,47,30.38,30.35,0,0,0,0.00
2013-12-18,39.7,39.7,39.7,21.7,21.7,21.7,48,48,48,30.35,30.35,0,0,0,0.00
2013-12-26,29.7,24.8,21.9,12.7,11.1,9.8,61,56,48,30.41,30.38,0,0,0,0.00
2013-12-27,38.5,27.1,20.7,20.3,14.7,10.6,72,60,38,30.41,30.20,0,0,0,0.00
2013-12-28,37.4,27.3,18.0,18.3,13.3,7.8,69,56,39,30.23,30.08,0,0,0,0.00
2013-12-29,28.0,19.6,12.9,11.6,6.7,2.4,68,57,45,30.29,30.23,0,0,0,0.00
2013-12-30,35.1,24.4,16.0,14.3,9.9,3.8,62,54,40,30.35,30.26,0,0,0,0.00
2013-12-31,41.2,33.4,21.6,29.3,20.7,10.2,77,60,40,30.26,30.17,0,0,0,0.00
2014-1-1,37.4,30.7,21.0,21.9,17.1,11.7,70,57,45,30.35,30.17,0,0,0,0.00
2014-1-2,37.2,26.2,19.9,18.6,13.5,10.6,73,59,40,30.35,30.20,0,0,0,0.00